Location: Newark
(54.6833°N, 25.2833°E)
Time: 11:08:24
(UTC+00:00)

Transit 2A Rocket - Visible Passes

Search period start: 21 January 2021 00:00
Search period end: 31 January 2021 00:00
Orbit: 592 x 910 km, 66.7° (Epoch: 21 January)

Date Brightness Start Highest point End Pass type
(mag) Time Alt. Az. Time Alt. Az. Time Alt. Az.
21 Jan 6.1 16:38:51 10° NW 16:42:29 21° NNE 16:43:16 20° NNE visible
21 Jan 6.8 18:21:36 10° NW 18:23:10 20° NNW 18:23:10 20° NNW visible
22 Jan 6.3 15:55:59 10° NW 15:59:28 20° N 16:01:54 14° NE visible
22 Jan 6.0 17:39:00 10° NW 17:41:48 28° N 17:41:48 28° N visible
22 Jan 7.8 19:21:38 10° NW 19:21:42 10° NW 19:21:42 10° NW visible
23 Jan 5.7 16:56:23 10° NW 17:00:24 28° NNE 17:00:28 28° NNE visible
23 Jan 7.0 18:38:57 10° NW 18:40:22 20° NW 18:40:22 20° NW visible
24 Jan 6.0 16:13:42 10° NW 16:17:27 23° NNE 16:19:10 19° NE visible
24 Jan 5.9 17:56:20 10° NW 17:59:04 34° NNW 17:59:04 34° NNW visible
25 Jan 6.2 15:30:55 10° NW 15:34:28 20° NNE 15:37:50 10° ENE visible
25 Jan 5.1 17:13:44 10° NW 17:17:48 43° NNE 17:17:48 43° NNE visible
25 Jan 7.2 18:56:29 10° NW 18:57:43 17° WNW 18:57:43 17° WNW visible
26 Jan 5.4 16:31:09 10° NW 16:35:18 32° NNE 16:36:36 27° ENE visible
26 Jan 5.9 18:13:44 10° NW 18:16:31 36° WNW 18:16:31 36° WNW visible
27 Jan 5.8 15:48:31 10° NW 15:52:24 26° NNE 15:55:28 13° ENE visible
27 Jan 4.4 17:31:04 10° NW 17:35:24 79° N 17:35:24 79° N visible
27 Jan 7.5 19:14:31 10° WNW 19:15:20 13° WNW 19:15:20 13° WNW visible
28 Jan 4.6 16:48:28 10° NW 16:52:56 55° NE 16:54:22 37° E visible
28 Jan 6.5 18:31:24 10° WNW 18:34:18 27° W 18:34:18 27° W visible
29 Jan 5.1 16:05:53 10° NW 16:10:10 39° NE 16:13:26 15° E visible
29 Jan 5.3 17:48:32 10° NW 17:52:49 47° WSW 17:53:23 44° SSW visible
30 Jan 4.6 17:05:50 10° NW 17:10:18 76° SW 17:12:37 27° SSE visible
30 Jan 7.3 18:49:58 10° W 18:52:00 13° WSW 18:52:34 13° WSW visible
